Location: *
(46.4833°N, 7.6667°E)
Time: 05:25:04
(UTC+00:00)

Cosmos 2034 Rocket - Pass Details

Date: 27 February 2020
Orbit: 958 x 1000 km, 82.9° (Epoch: 28 March)

Event Time Altitude Azimuth Distance (km) Brightness Sun altitude
Rises 18:25:49 0° 172° (S) 3,633 6.9 -13.6°
Reaches altitude 10° 18:28:21 10° 169° (SSE) 2,688 6.2 -14.0°
Maximum altitude 18:34:20 57° 92° (E) 1,125 4.0 -15.0°
Drops below altitude 10° 18:40:20 10° 16° (NNE) 2,703 6.2 -16.0°
Sets 18:42:53 0° 13° (NNE) 3,655 6.9 -16.5°
